Weather History for KAIT - January, 2013

Change the Weather History Date:

Friday, January 18, 2013

  Actual Average Record
Temperature  
Mean Temperature 14 °F -  
Max Temperature 24 °F 21 °F 47 °F (1981)
Min Temperature 5 °F 0 °F -32 °F (1967)
Degree Days  
Heating Degree Days 50    
Moisture  
Dew Point 11 °F    
Average Humidity 74    
Maximum Humidity 80    
Minimum Humidity 67    
Precipitation  
Precipitation 0.00 in - - ()
Sea Level Pressure  
Sea Level Pressure 29.83 in    
Wind  
Wind Speed 3 mph (SE)    
Max Wind Speed 10 mph    
Max Gust Speed -    
Visibility 9 miles    
Events Snow    
Averages and records for this station are not official NWS values.
T = Trace of Precipitation, MM = Missing Value Source: NWS Daily Summary

Daily Weather History Graph

Daily Weather History Graph

Search for Another Location

Airport or City:

Trip Planner

Search our weather history database for the weather conditions in past years. The results will help you decide how hot, cold, wet, or windy it might be!

Date:

Astronomy

Jan. 18, 2013 Rise Set
Actual Time 7:52 AM CST 4:58 PM CST
Civil Twilight 7:18 AM CST 5:32 PM CST
Nautical Twilight 6:41 AM CST 6:09 PM CST
Astronomical Twilight 6:05 AM CST 6:45 PM CST
Moon 11:01 AM CST (1/18) 12:18 AM CST (1/18)
Length of Visible Light 10h 13m
Length of Day
9h 06m
Waxing Crescent, 47% of the Moon is Illuminated
Jan 18
Waxing Crescent
Jan 18
First Quarter
Jan 26
Full
Feb 3
Last Quarter
Feb 10
New

Hourly Weather History & Observations

Time (CST) Temp. Windchill Dew Point Humidity Pressure Visibility Wind Dir Wind Speed Gust Speed Precip Events Conditions
12:13 AM 5.0 °F - -2.2 °F 72% 30.18 in 10.0 mi Calm Calm - N/A   Overcast
12:32 AM 6.8 °F - -0.4 °F 72% 30.18 in 10.0 mi Calm Calm - N/A   Overcast
12:52 AM 8.6 °F - -0.4 °F 67% 30.17 in 10.0 mi Calm Calm - N/A   Overcast
1:12 AM 8.6 °F 2.0 °F 1.4 °F 73% 30.16 in 10.0 mi ESE 3.5 mph - N/A   Overcast
1:32 AM 8.6 °F 2.0 °F 1.4 °F 73% 30.15 in 7.0 mi SE 3.5 mph - N/A Snow Light Snow
1:53 AM 10.4 °F - 1.4 °F 67% 30.15 in 2.5 mi Calm Calm - N/A Snow Light Snow
2:12 AM 10.4 °F 2.2 °F 3.2 °F 73% 30.13 in 2.0 mi SE 4.6 mph - N/A Snow Light Snow
2:32 AM 10.4 °F 0.8 °F 3.2 °F 73% 30.12 in 2.0 mi SE 5.8 mph - N/A Snow Light Snow
2:53 AM 10.4 °F 0.8 °F 3.2 °F 73% 30.09 in 1.8 mi SE 5.8 mph - N/A Snow Light Snow
3:12 AM 10.4 °F 0.8 °F 3.2 °F 73% 30.07 in 1.5 mi SE 5.8 mph - N/A Snow Light Snow
3:32 AM 10.4 °F -0.4 °F 5.0 °F 79% 30.04 in 2.0 mi ESE 6.9 mph - N/A Snow Light Snow
3:53 AM 12.2 °F -0.2 °F 5.0 °F 73% 30.02 in 5.0 mi SE 9.2 mph - N/A Snow Light Snow
4:12 AM 12.2 °F 0.7 °F 6.8 °F 79% 30.00 in 4.0 mi SE 8.1 mph - N/A Snow Light Snow
4:32 AM 12.2 °F 2.9 °F 6.8 °F 79% 29.99 in 7.0 mi SE 5.8 mph - N/A Snow Light Snow
4:53 AM 14.0 °F 3.9 °F 6.8 °F 73% 29.98 in 10.0 mi SE 6.9 mph - N/A   Overcast
5:12 AM 14.0 °F 5.1 °F 6.8 °F 73% 29.96 in 10.0 mi SE 5.8 mph - N/A Snow Light Snow
5:32 AM 14.0 °F 2.0 °F 6.8 °F 73% 29.94 in 10.0 mi SE 9.2 mph - N/A   Overcast
5:53 AM 14.0 °F 2.9 °F 6.8 °F 73% 29.91 in 10.0 mi SE 8.1 mph - N/A   Overcast
6:12 AM 15.8 °F 5.1 °F 8.6 °F 73% 29.89 in 10.0 mi SE 8.1 mph - N/A   Overcast
6:33 AM 15.8 °F 5.1 °F 8.6 °F 73% 29.88 in 10.0 mi SE 8.1 mph - N/A   Mostly Cloudy
6:52 AM 15.8 °F 7.2 °F 8.6 °F 73% 29.87 in 10.0 mi SE 5.8 mph - N/A   Overcast
7:13 AM 15.8 °F 7.2 °F 8.6 °F 73% 29.86 in 10.0 mi SSE 5.8 mph - N/A   Overcast
7:33 AM 15.8 °F 6.1 °F 8.6 °F 73% 29.84 in 10.0 mi SSE 6.9 mph - N/A   Overcast
7:52 AM 17.6 °F 7.3 °F 10.4 °F 73% 29.84 in 10.0 mi SSE 8.1 mph - N/A   Overcast
8:13 AM 17.6 °F 6.4 °F 10.4 °F 73% 29.83 in 10.0 mi SSE 9.2 mph - N/A   Overcast
8:33 AM 17.6 °F 5.7 °F 10.4 °F 73% 29.82 in 10.0 mi SSE 10.4 mph - N/A   Overcast
8:52 AM 17.6 °F 7.3 °F 10.4 °F 73% 29.81 in 10.0 mi SSE 8.1 mph - N/A   Overcast
9:13 AM 17.6 °F 9.3 °F 10.4 °F 73% 29.82 in 10.0 mi SSE 5.8 mph - N/A   Overcast
9:32 AM 17.6 °F 8.2 °F 10.4 °F 73% 29.81 in 10.0 mi SE 6.9 mph - N/A   Overcast
9:53 AM 19.4 °F 9.5 °F 12.2 °F 74% 29.79 in 10.0 mi SE 8.1 mph - N/A   Overcast
10:13 AM 19.4 °F 10.4 °F 12.2 °F 74% 29.79 in 10.0 mi SE 6.9 mph - N/A   Overcast
10:32 AM 19.4 °F 12.8 °F 12.2 °F 74% 29.79 in 10.0 mi SE 4.6 mph - N/A   Overcast
10:53 AM 19.4 °F 12.8 °F 12.2 °F 74% 29.78 in 10.0 mi SSE 4.6 mph - N/A   Overcast
11:13 AM 19.4 °F 11.5 °F 12.2 °F 74% 29.77 in 10.0 mi SSE 5.8 mph - N/A   Overcast
11:32 AM 21.2 °F 16.4 °F 12.2 °F 68% 29.75 in 10.0 mi ESE 3.5 mph - N/A   Overcast
11:53 AM 21.2 °F 13.6 °F 14.0 °F 74% 29.73 in 10.0 mi SE 5.8 mph - N/A   Overcast
12:13 PM 21.2 °F - 14.0 °F 74% 29.72 in 10.0 mi Calm Calm - N/A   Overcast
12:32 PM 23.0 °F 17.0 °F 15.8 °F 74% 29.71 in 10.0 mi ESE 4.6 mph - N/A   Overcast
12:53 PM 23.0 °F - 15.8 °F 74% 29.69 in 10.0 mi Calm Calm - N/A   Mostly Cloudy
1:13 PM 23.0 °F - 15.8 °F 74% 29.69 in 10.0 mi Calm Calm - N/A   Scattered Clouds
1:32 PM 23.0 °F 18.4 °F 15.8 °F 74% 29.70 in 10.0 mi North 3.5 mph - N/A   Scattered Clouds
1:53 PM 24.8 °F 19.1 °F 15.8 °F 69% 29.73 in 10.0 mi NNW 4.6 mph - N/A   Scattered Clouds
2:13 PM 23.0 °F - 15.8 °F 74% 29.71 in 10.0 mi Calm Calm - N/A   Mostly Cloudy
2:32 PM 23.0 °F 17.0 °F 15.8 °F 74% 29.69 in 10.0 mi ENE 4.6 mph - N/A   Mostly Cloudy
2:53 PM 23.0 °F 18.4 °F 15.8 °F 74% 29.68 in 10.0 mi NE 3.5 mph - N/A   Scattered Clouds
3:13 PM 23.0 °F 18.4 °F 15.8 °F 74% 29.69 in 10.0 mi NE 3.5 mph - N/A   Scattered Clouds
3:30 PM 23.0 °F 18.4 °F 15.8 °F 74% 29.70 in 10.0 mi North 3.5 mph - N/A   Scattered Clouds
3:48 PM 23.0 °F - 15.8 °F 74% 29.71 in 10.0 mi North - - N/A   Unknown
4:13 PM - - - N/A% - - North - - N/A   Unknown
4:33 PM 24.8 °F - 15.8 °F 69% 29.70 in 10.0 mi Calm Calm - N/A   Mostly Cloudy
4:52 PM 21.2 °F - 14.0 °F 74% 29.71 in 10.0 mi Calm Calm - N/A   Mostly Cloudy
5:13 PM 21.2 °F - 14.0 °F 74% 29.72 in 10.0 mi Calm Calm - N/A   Mostly Cloudy
5:33 PM 21.2 °F - 15.8 °F 80% 29.74 in 10.0 mi Calm Calm - N/A   Overcast
5:52 PM 23.0 °F - 15.8 °F 74% 29.74 in 10.0 mi Calm Calm - N/A   Overcast
6:13 PM 23.0 °F - 15.8 °F 74% 29.74 in 10.0 mi Calm Calm - N/A   Overcast
6:33 PM 21.2 °F - 15.8 °F 80% 29.73 in 10.0 mi Calm Calm - N/A   Overcast
6:52 PM 21.2 °F - 14.0 °F 74% 29.74 in 10.0 mi Calm Calm - N/A   Mostly Cloudy
7:13 PM 19.4 °F - 12.2 °F 74% 29.74 in 10.0 mi Calm Calm - N/A   Scattered Clouds
7:33 PM 17.6 °F - 10.4 °F 73% 29.74 in 7.0 mi Calm Calm - N/A   Scattered Clouds
7:52 PM 17.6 °F - 12.2 °F 79% 29.74 in 10.0 mi Calm Calm - N/A   Mostly Cloudy
8:13 PM 19.4 °F - 12.2 °F 74% 29.73 in 10.0 mi Calm Calm - N/A   Overcast
8:33 PM 19.4 °F - 12.2 °F 74% 29.72 in 10.0 mi Calm Calm - N/A   Mostly Cloudy
8:52 PM 19.4 °F - 12.2 °F 74% 29.72 in 10.0 mi Calm Calm - N/A   Scattered Clouds
9:13 PM 19.4 °F - 12.2 °F 74% 29.72 in 10.0 mi Calm Calm - N/A   Clear
9:33 PM 19.4 °F - 12.2 °F 74% 29.72 in 10.0 mi Calm Calm - N/A   Clear
9:52 PM 19.4 °F - 12.2 °F 74% 29.73 in 10.0 mi Calm Calm - N/A   Clear
10:13 PM 19.4 °F - 12.2 °F 74% 29.73 in 10.0 mi Calm Calm - N/A   Scattered Clouds
10:33 PM 19.4 °F - 14.0 °F 80% 29.73 in 7.0 mi Calm Calm - N/A   Mostly Cloudy
10:52 PM 21.2 °F - 15.8 °F 80% 29.72 in 7.0 mi Calm Calm - N/A   Overcast
11:13 PM 21.2 °F - 15.8 °F 80% 29.72 in 7.0 mi Calm Calm - N/A Snow Light Snow
11:32 PM 21.2 °F - 15.8 °F 80% 29.72 in 10.0 mi Calm Calm - N/A   Overcast
11:52 PM 23.0 °F - 15.8 °F 74% 29.72 in 10.0 mi Calm Calm - N/A   Overcast